Hourly Data Report for September 10, 2017

All times are specified in Local Standard Time (LST). Add 1 hour to adjust for Daylight Saving Time where and when it is observed.

POND INLET A
NUNAVUT

72°41'22.000" N
77°58'08.000" W
61.60 m
2403206
71095
YIO

Related Data

No related data is available for this station

Download Data

Hourly Data (September 2017)
Hourly Data Report for September 10, 2017
Temp Definition
°C
Dew Point Temp Definition
°C
Rel Hum Definition
%
Wind Dir Definition
10's deg

Wind Spd Definition
km/h
Visibility Definition
km
Stn Press Definition
kPa
Hmdx Definition


Wind Chill Definition


Weather Definition


TIME
00:00 Legend Double Dagger -1.4 -3.6 85 27 34 16.1 98.23   -9 LegendNANA
01:00 Legend Double Dagger -2.0 -4.0 86 28 45 6.4 98.22   -10 Snow
02:00 Legend Double Dagger -2.0 -4.4 84 29 52 11.3 98.31   -11 Snow
03:00 Legend Double Dagger -1.8 -4.5 82 26 39 16.1 98.47   -10 LegendNANA
04:00 Legend Double Dagger -2.4 -4.9 83 27 58 9.7 98.49   -12 Snow
05:00 Legend Double Dagger -3.3 -5.0 88 27 67 2.0 98.55   -14 Snow
06:00 Legend Double Dagger -3.3 -5.2 87 27 67 3.6 98.68   -14 Snow
07:00 Legend Double Dagger -3.2 -6.0 81 25 65 16.1 98.86   -14 LegendNANA
08:00 Legend Double Dagger -2.9 -5.7 81 26 50 16.1 98.93   -12 LegendNANA
09:00 Legend Double Dagger -2.5 -5.5 80 26 52 16.1 98.97   -12 LegendNANA
10:00 Legend Double Dagger -1.5 -5.4 75 27 58 16.1 98.95   -11 LegendNANA
11:00 Legend Double Dagger -0.9 -4.6 76 26 50 16.1 99.05   -9 LegendNANA
12:00 Legend Double Dagger -0.8 -4.5 76 27 55 16.1 99.09   -10 LegendNANA
13:00 Legend Double Dagger -0.9 -4.0 80 24 35 16.1 99.22   -8 Snow
14:00 Legend Double Dagger -0.6 -3.8 79 25 37 16.1 99.23   -8 Snow
15:00 Legend Double Dagger -0.5 -3.2 82 23 35 16.1 99.26   -8 Snow
16:00 Legend Double Dagger -0.5 -3.4 81 25 30 16.1 99.31   -7 Snow
17:00 Legend Double Dagger -0.3 -2.8 83 25 30 16.1 99.32   -7 Snow
18:00 Legend Double Dagger -0.2 -3.2 80 24 34 16.1 99.32   -7 LegendNANA
19:00 Legend Double Dagger 0.2 -3.0 79 23 30 16.1 99.34     LegendNANA
20:00 Legend Double Dagger 0.6 -3.0 77 24 34 16.1 99.34     LegendNANA
21:00 Legend Double Dagger 0.8 -3.0 76 25 46 16.1 99.33     LegendNANA
22:00 Legend Double Dagger 0.6 -2.5 80 25 41 16.1 99.30     LegendNANA
23:00 Legend Double Dagger 0.7 -2.0 82 25 46 16.1 99.29     LegendNANA

Notes on Data Quality.

Legend

  • E = Estimated
  • M = Missing
  • NA = Not Available
  • ‡ = Partner data that is not subject to review by the National Climate Archives
Date modified: